STARLINK-3329 (50827 NORAD) Tracking and Keplerian Element Data

This shows tracking and keplerian element data for the satellite.

Feedback or suggestion? Click here.




ElementValue
Catalog50827
NameSTARLINK-3329
Epoch Orbit382
Epoch Day22.91667824
Epoch Year2022
RAAN119.7732
Inclination53.2175
Eccentricity0.0001028
Argument of Perigee83.958
Mean Anonmoly224.9683
Mean Motion15.7516705
Decay Rate-0.00820926
L11 50827U 22001AA 22022.91667824 -.00820926 00000+0 -59117-2 0 9991
L22 50827 53.2175 119.7732 0001028 83.9580 224.9683 15.75167050 3825

Live tracking and technical data element details for STARLINK-3329 (NORAD 50827). STARLINK-3329 can be tracked NOW for your location showing map with azimuth and elevation plus other details from your city location.

Track the satellite on the map from your city or location and see movement details for azimuth, elevation, latitude, longitude, range, height, and movement on the map or in text.







IsCatalogInMostPopularTable: catalog: 50827, numindb: 3
Update: records affected: 1



GetName: 50827 STARLINK-3329

Hit Count: updated at: Mon, 24 Jan 2022 01:29:50 GMT